Hourly Data Report for October 29, 2015

All times are specified in Local Standard Time (LST). Add 1 hour to adjust for Daylight Saving Time where and when it is observed.

SAINT JOHN A
NEW BRUNSWICK

45°18'58.000" N
65°53'24.000" W
108.80 m
8104901
71609
YSJ

Download Data

Hourly Data (October 2015)
Hourly Data Report for October 29, 2015
Temp Definition
°C
Dew Point Temp Definition
°C
Rel Hum Definition
%
Wind Dir Definition
10's deg

Wind Spd Definition
km/h
Visibility Definition
km
Stn Press Definition
kPa
Hmdx Definition


Wind Chill Definition


Weather Definition


TIME
00:00 Legend Double Dagger 6.2 5.0 92 11 19 16.1 101.04     Rain
01:00 Legend Double Dagger 7.1 5.4 89 12 27 16.1 100.84     Rain
02:00 Legend Double Dagger 7.5 6.1 91 11 27 16.1 100.59     Rain
03:00 Legend Double Dagger 8.1 6.6 90 12 39 9.7 100.35     Rain
04:00 Legend Double Dagger 8.5 7.3 92 12 35 6.4 100.04     Rain,Fog
05:00 Legend Double Dagger 9.4 8.3 93 12 34 2.4 99.87     Rain,Fog
06:00 Legend Double Dagger 10.6 9.7 94 12 28 2.4 99.68     Rain,Fog
07:00 Legend Double Dagger 12.2 11.3 94 14 32 2.4 99.39     Rain,Fog
08:00 Legend Double Dagger 13.4 12.8 96 15 39 2.4 99.19     Rain,Fog
09:00 Legend Double Dagger 14.7 14.1 96 17 44 2.4 99.02     Rain,Fog
10:00 Legend Double Dagger 15.3 14.7 96 18 40 2.4 98.88     Moderate Rain,Fog
11:00 Legend Double Dagger 15.7 15.1 96 19 55 4.0 98.77     Rain,Fog
12:00 Legend Double Dagger 16.0 15.4 96 19 61 4.0 98.62     Rain,Fog
13:00 Legend Double Dagger 16.4 15.8 96 20 58 4.8 98.46     Rain,Fog
14:00 Legend Double Dagger 15.6 15.0 96 20 50 2.0 98.40     Rain,Fog
15:00 Legend Double Dagger 15.1 14.5 96 21 44 0.8 98.36     Rain,Fog
16:00 Legend Double Dagger 14.5 14.0 97 21 40 0.4 98.35     Drizzle,Fog
17:00 Legend Double Dagger 13.9 13.4 97 21 36 0.4 98.27     Drizzle,Fog
18:00 Legend Double Dagger 13.5 13.0 97 21 38 0.4 98.19     Drizzle,Fog
19:00 Legend Double Dagger 12.9 12.4 97 21 33 0.6 98.18     Drizzle,Fog
20:00 Legend Double Dagger 12.6 12.1 97 21 36 0.8 98.16     Drizzle,Fog
21:00 Legend Double Dagger 12.4 11.9 97 22 30 1.2 98.15     Drizzle,Fog
22:00 Legend Double Dagger 12.2 11.7 97 24 19 2.4 98.17     Drizzle,Fog
23:00 Legend Double Dagger 10.4 6.6 77 28 18 24.1 98.17     Mostly Cloudy

Notes on Data Quality.

Legend

  • E = Estimated
  • M = Missing
  • NA = Not Available
  • ‡ = Partner data that is not subject to review by the National Climate Archives
Date modified: